Disclaimer

Please do not use the information listed here in-flight or in-navigation, as they are not provided to us by the airports but are provided by volunteers, so they might be outdated.

Search


Regions


Airport information page

Radio informations:
Tower (TWR) - 118.35 MHz
LANGEN RADAR - 129.675 MHz
LANGEN INFO - 123.525 MHz

Airport informations:
Latitude: 49° 12' 52.39" N
Longitude: 007° 06' 34.23" E
Elevation: 1058 feet - 322 meters
Operating hours: Remarks
Operating agency: Civil government, landing fees and diplomatic clearance may be required
Timezone: UTC+1(+2DT) - Last Sunday in March to last Sunday in October
Fuel: Jet A1, without icing nhibitor.

100/130 MIL Spec, low lead, aviation gasoline (BLUE)

Runway information:
09/27 - 6562 x 148 feet< - >2000 x 45 meters
09L/27R - 1788 x 164 feet< - >545 x 50 meters

Recent METARs:
EDDR 171320Z 26022G32KT 9999 FEW015 SCT018TCU BKN035 05/02 Q1005 NOSIG
EDDR 171350Z 26022KT 9999 -SHRA FEW015 BKN018CB 05/01 Q1005 TEMPO 27015G25KT
EDDR 171420Z 26022KT 9999 -SHRA FEW015 BKN018CB 04/02 Q1006 TEMPO SHRA

Airport on the map: